Powrót do katalogu

ION SCV-004

AktywnyNaukaSSO
NORAD 50993·PAYLOAD·🇮🇹 Italy

Wystrzelony Jan 13, 2022 z Cape Canaveral Space Force Station

Loading…

Następne Przeloty (najbliższe 24 godziny)

TLE

ŚwieżeSource: Space-Track

Epoka: Sep 13, 2026, 17:45 UTC

1 50993U 22002K   26256.74010927  .00003483  00000-0  11801-3 0  9995
2 50993  97.2740 312.7355 0008318  48.5271 311.6683 15.31198247258846

Śledź ION SCV-004 w czasie rzeczywistym z AllMySat

Download on the App Store